CDT,Max TemperatureF,Mean TemperatureF,Min TemperatureF,Max Dew PointF,MeanDew PointF,Min DewpointF,Max Humidity, Mean Humidity, Min Humidity, Max Sea Level PressureIn, Mean Sea Level PressureIn, Min Sea Level PressureIn, Max VisibilityMiles, Mean VisibilityMiles, Min VisibilityMiles, Max Wind SpeedMPH, Mean Wind SpeedMPH, Max Gust SpeedMPH,PrecipitationIn, CloudCover, Events, WindDirDegrees
2013-4-1,89,80,71,68,67,63,90,67,43,30.00,29.93,29.85,10,10,10,20,10,25,0.00,5,,100
2013-4-2,87,79,71,70,68,67,90,73,55,29.95,29.85,29.73,10,10,9,21,13,24,T,5,Rain,128
2013-4-3,80,72,64,70,62,54,93,71,48,30.09,29.88,29.78,10,10,10,24,12,29,T,6,Rain,23
2013-4-4,84,71,58,55,47,37,77,48,19,30.17,30.11,30.04,10,10,10,18,11,25,0.00,3,,360
2013-4-5,82,69,56,55,52,49,86,60,33,30.26,30.15,30.03,10,10,10,21,8,25,0.00,0,,101
2013-4-6,83,73,62,62,60,56,84,66,47,30.07,29.96,29.85,10,10,10,28,15,33,0.00,2,,132
2013-4-7,86,77,67,67,64,62,87,69,51,29.90,29.83,29.75,10,10,10,25,18,33,0.00,5,,140
2013-4-8,90,81,71,70,68,66,84,68,52,29.79,29.71,29.61,10,10,9,30,18,35,0.00,6,,146
2013-4-9,96,85,74,72,70,69,87,65,42,29.68,29.62,29.53,10,9,6,30,19,39,0.00,5,,149
2013-4-10,95,79,62,72,64,52,87,57,26,29.81,29.66,29.57,10,9,7,30,17,39,T,6,,57
2013-4-11,79,68,57,55,46,41,78,53,27,29.96,29.86,29.78,10,10,10,23,11,29,T,3,Rain,39
2013-4-12,88,73,57,61,57,51,90,63,35,29.94,29.89,29.82,10,10,10,25,11,31,0.00,2,,107
2013-4-13,82,74,65,65,62,59,87,68,49,29.91,29.79,29.70,10,10,10,23,14,29,0.00,5,,115
2013-4-14,94,83,71,70,69,64,93,66,39,29.78,29.73,29.62,10,10,7,23,9,28,T,6,Rain,133
2013-4-15,93,83,72,70,68,66,84,64,44,29.77,29.71,29.64,10,8,4,26,17,36,0.00,2,,140
2013-4-16,92,83,73,74,71,67,93,69,44,29.82,29.76,29.69,10,8,5,30,15,35,0.00,4,,132
2013-4-17,96,87,77,75,73,72,94,70,46,29.83,29.74,29.61,10,8,4,24,18,35,0.00,6,,144
2013-4-18,97,81,65,72,62,43,79,57,35,30.03,29.74,29.60,10,9,6,31,17,38,0.00,4,,8
2013-4-19,73,64,54,45,32,21,55,36,16,30.32,30.20,30.04,10,10,10,25,13,35,0.00,4,,37
2013-4-20,80,65,50,52,43,38,74,49,23,30.23,30.12,29.99,10,10,10,21,8,24,0.00,0,,119
2013-4-21,86,73,60,64,57,52,84,59,34,30.08,30.02,29.94,10,10,10,20,10,24,0.00,1,,110
2013-4-22,89,79,68,70,66,62,90,67,43,30.07,29.99,29.88,10,10,4,23,12,30,0.02,4,Rain,130
2013-4-23,88,80,71,71,69,66,93,74,55,29.94,29.84,29.74,10,10,9,30,18,38,T,6,Rain,134
2013-4-24,76,65,53,72,59,48,93,85,77,30.23,30.07,29.89,10,8,2,31,12,40,0.19,8,Rain,10
2013-4-25,63,60,57,62,56,49,100,83,65,30.26,30.20,30.15,10,5,1,16,7,21,T,8,Rain,312
2013-4-26,89,75,60,70,64,60,100,75,50,30.17,30.08,29.97,10,4,0,26,10,35,0.00,6,Fog,156
2013-4-27,88,81,74,72,70,68,93,74,55,30.05,29.97,29.86,10,10,8,23,13,29,0.00,6,Thunderstorm,133
2013-4-28,79,72,64,73,68,61,93,75,56,30.00,29.91,29.82,10,8,1,38,12,48,1.12,7,Rain-Thunderstorm,82
2013-4-29,82,75,68,71,67,64,93,76,58,29.93,29.85,29.77,10,10,9,28,5,31,T,7,Rain,81
2013-4-30,90,79,68,73,69,68,100,77,53,29.82,29.77,29.67,10,6,0,17,6,23,0.00,4,Fog,120